TimePST,TemperatureF,Dew PointF,Humidity,Sea Level PressureIn,VisibilityMPH,Wind Direction,Wind SpeedMPH,Gust SpeedMPH,PrecipitationIn,Events,Conditions,WindDirDegrees,DateUTC
12:45 AM,46.4,46.4,100,30.16,6.0,North,6.9,-,N/A,,Overcast,10,2012-11-15 08:45:00
12:54 AM,46.9,46.0,97,30.16,6.0,NNE,6.9,-,N/A,,Overcast,20,2012-11-15 08:54:00
1:54 AM,46.9,46.0,97,30.15,3.0,NNE,4.6,-,N/A,,Overcast,30,2012-11-15 09:54:00
2:13 AM,46.4,46.4,100,30.14,2.5,North,4.6,-,N/A,,Overcast,360,2012-11-15 10:13:00
2:30 AM,46.4,46.4,100,30.14,3.0,North,6.9,-,N/A,,Overcast,360,2012-11-15 10:30:00
2:54 AM,46.0,46.0,100,30.14,4.0,North,6.9,-,N/A,,Overcast,350,2012-11-15 10:54:00
3:12 AM,46.4,46.4,100,30.12,5.0,North,8.1,-,N/A,,Overcast,360,2012-11-15 11:12:00
3:54 AM,46.0,45.0,96,30.11,6.0,North,8.1,-,N/A,,Overcast,10,2012-11-15 11:54:00
4:28 AM,46.4,44.6,93,30.10,5.0,North,6.9,-,N/A,,Overcast,360,2012-11-15 12:28:00
4:54 AM,46.0,45.0,96,30.10,5.0,North,8.1,-,N/A,,Overcast,360,2012-11-15 12:54:00
5:54 AM,46.0,45.0,96,30.09,7.0,North,6.9,-,N/A,,Overcast,350,2012-11-15 13:54:00
6:18 AM,46.4,44.6,93,30.07,5.0,North,4.6,-,N/A,,Overcast,10,2012-11-15 14:18:00
6:25 AM,46.4,44.6,93,30.07,5.0,North,4.6,-,N/A,,Overcast,360,2012-11-15 14:25:00
6:54 AM,46.0,44.1,93,30.08,3.0,North,4.6,-,N/A,,Overcast,360,2012-11-15 14:54:00
6:59 AM,46.4,44.6,93,30.07,2.0,North,4.6,-,N/A,,Overcast,360,2012-11-15 14:59:00
7:23 AM,46.4,44.6,93,30.07,2.0,North,4.6,-,N/A,,Overcast,10,2012-11-15 15:23:00
7:54 AM,46.0,44.1,93,30.07,2.0,North,6.9,-,N/A,,Overcast,10,2012-11-15 15:54:00
8:01 AM,46.4,44.6,93,30.07,4.0,North,5.8,-,N/A,,Overcast,10,2012-11-15 16:01:00
8:54 AM,46.0,44.1,93,30.06,7.0,North,6.9,-,N/A,,Overcast,10,2012-11-15 16:54:00
9:42 AM,46.4,44.6,93,30.06,7.0,North,6.9,-,N/A,,Overcast,350,2012-11-15 17:42:00
9:54 AM,46.9,44.1,90,30.06,7.0,North,6.9,-,N/A,,Overcast,360,2012-11-15 17:54:00
10:54 AM,46.9,43.0,86,30.06,8.0,North,9.2,-,N/A,,Overcast,10,2012-11-15 18:54:00
11:54 AM,46.9,43.0,86,30.04,10.0,North,6.9,-,N/A,,Overcast,350,2012-11-15 19:54:00
12:54 PM,48.0,42.1,80,30.02,10.0,NNW,4.6,-,N/A,,Overcast,340,2012-11-15 20:54:00
1:12 PM,48.2,42.8,82,30.02,10.0,North,4.6,-,N/A,,Overcast,360,2012-11-15 21:12:00
1:54 PM,48.9,43.0,80,30.02,10.0,NNE,3.5,-,N/A,,Overcast,20,2012-11-15 21:54:00
2:36 PM,48.2,42.8,82,30.00,10.0,Calm,Calm,-,N/A,,Mostly Cloudy,0,2012-11-15 22:36:00
2:54 PM,50.0,43.0,77,30.00,10.0,North,3.5,-,N/A,,Mostly Cloudy,10,2012-11-15 22:54:00
3:54 PM,48.9,42.1,77,29.99,10.0,Calm,Calm,-,N/A,,Mostly Cloudy,0,2012-11-15 23:54:00
4:54 PM,45.0,42.1,90,29.99,9.0,NNE,4.6,-,N/A,,Mostly Cloudy,30,2012-11-16 00:54:00
5:47 PM,44.6,42.8,93,29.97,9.0,NE,4.6,-,N/A,,Mostly Cloudy,50,2012-11-16 01:47:00
5:54 PM,44.1,42.1,93,29.98,9.0,NE,3.5,-,N/A,,Mostly Cloudy,50,2012-11-16 01:54:00
6:54 PM,43.0,42.1,97,29.97,8.0,NE,3.5,-,N/A,,Mostly Cloudy,40,2012-11-16 02:54:00
7:54 PM,44.1,42.1,93,29.98,8.0,Calm,Calm,-,N/A,,Overcast,0,2012-11-16 03:54:00
8:54 PM,45.0,43.0,93,29.97,7.0,Calm,Calm,-,N/A,,Overcast,0,2012-11-16 04:54:00
9:54 PM,45.0,43.0,93,29.96,8.0,Calm,Calm,-,N/A,,Overcast,0,2012-11-16 05:54:00
10:54 PM,44.1,43.0,96,29.96,6.0,Calm,Calm,-,N/A,,Overcast,0,2012-11-16 06:54:00
11:54 PM,43.0,42.1,97,29.96,6.0,Calm,Calm,-,N/A,,Scattered Clouds,0,2012-11-16 07:54:00